This demonstration page uses our WeatherBlox Daily Observations layout. Learn more.

Left ArrowRight Arrow

Hourly Observations for July 4, 2016

Temp ( °F °C ) Dew Point ( °F °C ) Humidity (%) Winds ( mph kmh ) Pressure ( in mb ) Visibility ( mi km ) Precip ( " mm )
12:15 am 00:15 Cloudy 63 17.1 61 16 93 93 SSE 5 7 29.91 1013 7 11 N/A
12:35 am 00:35 Cloudy with Mist and Fog 63 17.2 61 16.1 93 93 SSE 3 6 29.91 1013 5 8 N/A
12:55 am 00:55 Cloudy with Mist and Fog 63 17.1 61 16.1 94 94 SSE 7 11 29.91 1013 4 6 N/A
1:15 am 01:15 Cloudy with Mist and Fog 63 17.2 61 16.2 94 94 S 6 9 29.91 1013 5 8 N/A
1:35 am 01:35 Cloudy 63 17.3 61 16.1 93 93 S 8 13 29.91 1013 7 11 N/A
1:55 am 01:55 Cloudy with Mist and Fog 63 17.1 61 16 93 93 S 5 7 29.88 1012 5 8 N/A
2:15 am 02:15 Cloudy with Mist and Fog 63 17 61 16.1 94 94 S 8 13 29.88 1012 2 3 N/A
2:35 am 02:35 Cloudy with Mist and Fog 63 17 61 16.2 95 95 S 6 9 29.85 1011 2 3 N/A
2:55 am 02:55 Cloudy with Mist and Fog 63 17 62 16.4 96 96 S 3 6 29.85 1011 2 3 N/A
3:15 am 03:15 Cloudy with Mist and Fog 63 17 61 16.3 96 96 S 3 6 29.85 1011 3 4 N/A
3:35 am 03:35 Cloudy with Mist and Fog 63 17 62 16.4 96 96 S 6 9 29.85 1011 3 4 N/A
3:55 am 03:55 Cloudy with Mist and Fog 63 17 61 16.2 95 95 S 5 7 29.85 1011 2 3 N/A
4:15 am 04:15 Cloudy with Mist and Fog 63 17 62 16.5 97 97 S 3 6 29.85 1011 3 4 N/A
4:35 am 04:35 Cloudy with Mist and Fog 63 17.1 62 16.5 96 96 S 5 7 29.85 1011 2 3 N/A
4:55 am 04:55 Cloudy with Mist and Fog 63 17.1 62 16.5 96 96 N N/A 29.85 1011 3 4 N/A
5:15 am 05:15 Cloudy with Mist and Fog 63 17.2 62 16.6 96 96 SSE 3 6 29.85 1011 3 4 N/A
5:35 am 05:35 Cloudy with Mist and Fog 63 17.2 62 16.6 96 96 N N/A 29.85 1011 2 3 N/A
5:55 am 05:55 Cloudy with Mist and Fog 64 17.5 62 16.8 96 96 S 3 6 29.85 1011 2 3 N/A
6:15 am 06:15 Cloudy with Mist and Fog 64 17.5 62 16.8 96 96 SSE 5 7 29.85 1011 2 2 N/A
6:35 am 06:35 Cloudy with Mist and Fog 64 17.5 62 16.9 96 96 SSE 6 9 29.85 1011 1 2 N/A
6:55 am 06:55 Cloudy with Mist and Fog 64 17.5 63 17 97 97 S 7 11 29.85 1011 1 1 N/A
7:15 am 07:15 Cloudy with Mist and Fog 64 17.5 63 17 97 97 S 6 9 29.85 1011 1 2 N/A
7:35 am 07:35 Cloudy with Mist and Fog 64 17.6 63 17 96 96 S 6 9 29.85 1011 1 2 N/A
7:55 am 07:55 Cloudy with Mist and Fog 64 17.6 63 17 96 96 S 3 6 29.85 1011 1 1 N/A
8:15 am 08:15 Cloudy with Mist and Fog 64 17.7 63 17.1 96 96 SW 5 7 29.85 1011 1 1 N/A
8:35 am 08:35 Cloudy with Fog 64 17.9 63 17.2 96 96 N N/A 29.85 1011 1 1 N/A
8:55 am 08:55 Cloudy with Fog 64 17.8 63 17.2 96 96 SSE 5 7 29.85 1011 1 1 N/A
9:15 am 09:15 Cloudy with Mist and Fog 64 18 63 17.3 96 96 SSE 7 11 29.85 1011 1 1 N/A
9:35 am 09:35 Cloudy with Mist and Fog 64 17.9 63 17.2 96 96 S 7 11 29.85 1011 1 1 N/A
9:55 am 09:55 Cloudy with Mist and Fog 64 18 63 17.3 96 96 SSE 10 17 29.85 1011 1 2 N/A
10:15 am 10:15 Cloudy with Mist and Fog 64 18 64 17.5 97 97 S 8 13 29.85 1011 1 2 N/A
10:35 am 10:35 Cloudy with Mist and Fog 65 18.2 64 17.6 96 96 SSW 9 15 29.85 1011 1 1 N/A
10:55 am 10:55 Cloudy with Mist and Fog 66 19 65 18.3 96 96 SW 7 11 29.83 1010 4 6 N/A
11:15 am 11:15 Cloudy 67 19.3 64 18 92 92 SW 7 11 29.83 1010 10 16 N/A
11:35 am 11:35 Cloudy 68 19.8 64 17.7 88 88 SSW 7 11 29.83 1010 10 16 N/A
11:55 am 11:55 Cloudy 68 20 64 17.9 88 88 SSW 8 13 29.83 1010 10 16 N/A
12:15 pm 12:15 Cloudy 69 20.5 64 17.8 85 85 S 8 13 29.83 1010 10 16 N/A
12:35 pm 12:35 Cloudy 70 21.1 64 18 83 83 S 8 13 29.83 1010 10 16 N/A
12:55 pm 12:55 Cloudy 72 22.2 65 18.2 78 78 S 10 17 29.77 1008 10 16 N/A
1:15 pm 13:15 Mostly Cloudy 73 22.6 65 18.4 77 77 SSW 12 19 29.77 1008 10 16 N/A
1:35 pm 13:35 Cloudy 74 23.6 66 18.9 75 75 SW 8 13 29.80 1009 10 16 N/A
1:55 pm 13:55 Cloudy 75 24 66 18.7 72 72 SW 9 15 29.80 1009 10 16 N/A
2:15 pm 14:15 Cloudy 75 23.8 66 18.8 74 74 WSW 5 7 29.80 1009 10 16 N/A
2:35 pm 14:35 Mostly Cloudy 76 24.5 66 18.7 70 70 SSW 6 9 29.77 1008 10 16 N/A
2:55 pm 14:55 Partly Cloudy 77 25.2 66 19 69 69 N N/A 29.77 1008 10 16 N/A
3:15 pm 15:15 Partly Cloudy 78 25.6 67 19.3 68 68 N N/A 29.74 1007 10 16 N/A
3:35 pm 15:35 Sunny 78 25.8 65 18.1 63 63 SW 3 6 29.74 1007 10 16 N/A
3:55 pm 15:55 Sunny 80 26.4 66 18.9 63 63 SW 3 6 29.74 1007 10 16 N/A
4:15 pm 16:15 Sunny 81 27 66 19 62 62 N N/A 29.74 1007 10 16 N/A
4:35 pm 16:35 Sunny 82 27.5 67 19.5 62 62 N N/A 29.74 1007 10 16 N/A
4:55 pm 16:55 Sunny 82 27.6 66 18.8 59 59 N N/A 29.74 1007 10 16 N/A
5:15 pm 17:15 Sunny 82 27.9 66 18.7 57 57 SW 3 6 29.74 1007 10 16 N/A
5:35 pm 17:35 Sunny 83 28.1 67 19.4 59 59 N N/A 29.74 1007 10 16 N/A
5:55 pm 17:55 Sunny 83 28.1 66 18.7 57 57 S 5 7 29.71 1006 10 16 N/A
6:15 pm 18:15 Sunny 83 28.5 66 18.9 56 56 SSE 3 6 29.71 1006 10 16 N/A
6:35 pm 18:35 Sunny 83 28.4 66 18.9 56 56 SSE 5 7 29.71 1006 10 16 N/A
6:55 pm 18:55 Sunny 83 28.6 66 19.1 56 56 ESE 6 9 29.71 1006 10 16 N/A
7:15 pm 19:15 Sunny 83 28.2 66 19 57 57 ESE 6 9 29.71 1006 10 16 N/A
7:35 pm 19:35 Sunny 83 28.3 66 18.9 57 57 SE 6 9 29.68 1005 10 16 N/A
7:55 pm 19:55 Hazy 82 28 68 19.8 61 61 SE 5 7 29.68 1005 3 5 N/A
8:15 pm 20:15 Mostly Cloudy with Haze 81 27.4 68 20 64 64 SE 5 7 29.71 1006 2 2 N/A
8:35 pm 20:35 Mostly Cloudy with Haze 79 26.2 69 20.6 71 71 ESE 5 7 29.68 1005 1 1 N/A
8:55 pm 20:55 Mostly Cloudy with Haze 76 24.5 70 21.1 81 81 ESE 3 6 29.71 1006 1 1 N/A
9:15 pm 21:15 Mostly Cloudy with Haze 74 23.4 69 20.3 83 83 SE 6 9 29.71 1006 1 2 N/A
9:35 pm 21:35 Clear with Mist and Fog 73 23 69 20.3 85 85 SE 5 7 29.71 1006 3 5 N/A
9:55 pm 21:55 Clear 71 21.5 67 19.7 90 90 N N/A 29.71 1006 10 16 N/A
10:15 pm 22:15 Clear 72 22.4 67 19.7 85 85 N N/A 29.74 1007 10 16 N/A
10:35 pm 22:35 Clear 71 21.6 66 19.1 86 86 N N/A 29.74 1007 10 16 N/A
10:55 pm 22:55 Clear 70 21 66 19 88 88 SE 6 9 29.77 1008 10 16 N/A
11:15 pm 23:15 Clear 71 21.4 66 19.1 87 87 SE 7 11 29.77 1008 10 16 N/A
11:35 pm 23:35 Clear 70 21.2 66 18.9 87 87 SSE 6 9 29.77 1008 10 16 N/A
11:55 pm 23:55 Clear 71 21.5 66 18.8 85 85 SSE 6 9 29.77 1008 10 16 N/A

Powered by AerisWeather